Погода Березино

Погода Березино : погода сейчас, прогноз погоды и архив. Всё, что Вы хотите узнать о погоде Березино!

Хотите узнать прогноз погоды Березино? Тогда Вам сюда: Погода Березино

Поиск расширенной информации на нашем сайте:

Другие новости

Новости СМИ2

Главная страница сайта

Новости сайта

03.07.2017

Напоминаем, что на нашем специализированном сайте Метеоцентр.Азия вы можете получить высокодетализированные автоматические прогнозы погоды по пунктам России, СНГ и мира в авиационном формате (включающие направление и скорость ветра, видимость, явления погоды, количество и форму облачности, нижнюю и верхнюю границу облачности).


Погода Березино - сегодня

Время (UTC), дата Ветер
(°,м/с) 
Видим.   Явления Облачность Т
(°С)
Тd
(°С)
f(%) Тe
(°С)
Pmin
(гПа)
dP
(гПа)
Po
(мм)
O2
(г/м3)
Тmin Tmax R s Состояние
почвы
03 12.12.17 140 (ЮВ) 10 км    10/10 180 м 
[St]
-0.3 -1.2 94 -1  1005.2  -0.7  740  298         
06 12.12.17 130 (ЮВ) 10 км    10/10 180 м 
[St]
+0.2 -1.2 90 -1  1004.4  -0.7  739  298  -0.7      равномерный
мокрый или
старый снег
100% 
09 12.12.17 170 (Ю) 10 км    10/8 270 м средняя 
[St|As trans]
+1.4 -0.3 88 1003.7  -0.7  739  296           
12 12.12.17 180 (Ю) 10 км    10/0 средняя 
[Ac As]
+2.2 +0.9 91 +2  1003  -0.6  738  295           
15 12.12.17 170 (Ю) 10 км    10/10 240 м 
[St]
+2.7 +1.4 91 +2  1004  739  295           
18 12.12.17 200 (Ю) 10 км    10/10 240 м 
[St]
+3.3 +2.3 93 +4  1004.9  740  294    +3.6     
21 12.12.17 200 (Ю) 10 км    9/9 600 м 
[Sc]
+3.5 +2.7 94 +3  1006.5  1.5  741  294           
00 13.12.17 220 (ЮЗ) 10 км    9/9 1230 м 
[Sc]
+4.6 +3.1 90 +3  1007.6  1.2  742  293           
03 13.12.17 260 (З) 10 км    9/0 средняя 
[As op]
+3.7 -0.3 75 +2  1009.7  743  295        <0.5   
06 13.12.17 250 (З) 10 км    10/0 средняя 
[As op]
+2.9 -1.9 71 +2  1011.6  1.7  744  297  +2.5      <0.5  мокрый или
старый снег
50-90% 
09 13.12.17 250 (З) 10 км    10/0 средняя 
[As trans]
+2.7 -2.2 70 +2  1013.2  1.6  746  298           
12 13.12.17 250 (З) 10 км    10/0 средняя 
[As op]
+2.5 -2.1 72 +2  1013.8  0.6  746  298           
15 13.12.17 270 (З) 10 км    4/3 600 м верхняя 
[Sc|Cc]
+0.4 -2.6 80 1014.4  0.5  746  301           
18 13.12.17 180 (Ю) 10 км    ясно 
-2.9 -3.9 93 -2  1014.5  -0.1  746  304    +2.9     
21 13.12.17 тихо ()   10 км    3/0 средняя 
[Ac und]
-3.2 -4.2 93 -3  1014  -0.6  746  305           
00 14.12.17 тихо ()   10 км    ясно 
-4.9 -5.9 93 -5  1012.9  -1.2  745  306           
03 14.12.17 210 (ЮЗ) 10 км    4/0 средняя 
[Ac und]
-4.8 -6.1 91 -4  1011.1  -1.7  744  306         
06 14.12.17 200 (Ю) 4500 м  дымка  10/10 150 м 
[St]
-4 -4.5 96 -4  1008.8  -2.3  742  304  -5.5      мокрый или
старый снег
50-90% 
09 14.12.17 160 (Ю) 10 км    9/0 средняя 
[Ac As]
-1.5 -2.6 92 -1  1006.6  -1.9  741  300           
12 14.12.17 160 (Ю) 10 км    9/9 300 м 
[Sc]
+0.4 -0.9 91 -1  1003.8  -2.6  739  297           
15 14.12.17 150 (ЮВ) 10 км    9/9 330 м 
[Sc]
+0.8 -1.3 86 -1  1002.5  -1.3  738  296           
18 14.12.17 150 (ЮВ) 4{10}  8000 м  слаб. снег  9/9 240 м 
[Sc]
+0.6 -0.2 94 -2  1001.5  -1  737  296    +0.8  0.6   
21 14.12.17 190 (Ю) 9000 м  слаб. снег  9/9 150 м 
[Sc]
+0.8 -0.6 90 -1  1000.6  -0.9  736  296           
00 15.12.17 160 (Ю) 3{10}  10 км  {снег, дождь}  9/9 240 м 
[Sc]
+1.4 +0 90 1000.7  0.2  736  295           
06 15.12.17 190 (Ю) 10 км    8/6 300 м средняя 
[St|Ac trans]
+1 -0.4 90 -1  1003.9  2.4  739  297  +0.3    <0.5  равномерный
мокрый или
старый снег
100% 
Время (UTC), дата Ветер
(°,м/с) 
Видим.   Явления Облачность Т
(°С)
Тd
(°С)
f(%) Тe
(°С)
Pmin
(гПа)
dP
(гПа)
Po
(мм)
O2
(г/м3)
Тmin Tmax R s Состояние
почвы

Для получения пояснительной информации подведите курсор к названию столбца.

ПОГОДА Березино - архив

Всё, что Вы хотите узнать о погоде Березино - удобно и подробно!

Выберите нужную дату (начиная с 1 января 2015* года) и нажмите кнопку "Найти".
Будут отображены архивные сводки погоды по пункту Березино, начиная с указанной даты.


Отображать данные в формате CSV (для использования в таблицах Excel)


Внимание! Наш архив погоды предназначен исключительно для личного некоммерческого использования в познавательных целях. Если Вам необходимы официальные справки о состоянии погоды (для производственных, юридических, коммерческих и т.п. целей), обращайтесь в органы Росгидромета.

*Примечание: данная дата относится к архиву по метеостанциям СССР (Россия, СНГ, Балтия).
Архив по метеостанциям Зарубежной Европы и Азии (кроме Китая) хранится 10 дней, по другим регионам земного шара (Китай, Африка, Америка, Австралия, Океания) - 1 день.

Березино - район местоположения метеостанции


Название, широта, долгота, высота метеостанции:
Березино 53.8°ш. 29°д. 154 м над ур. моря [Беларусь]

Дополнительная информация

В oтличие oт бoльшинства пoгoдных сайтoв мы публикуем пoдрoбную метеoинфoрмацию в детальнoм прoфессиoнальнoм фoрмате.

Характеристики температуры и влажнoсти вoздуха измеряются на высoте 2 м в тени вдали oт зданий и деревьев.
Скoрoсть ветра измеряется на высoте 10 м (на урoвне рoста челoвека скoрoсть ветра ниже в 1.5-2 раза). Если метеoстанция нахoдится в гoрoде или в лесу, тo скoрoсть ветра занижена на 2-4 м/с пo сравнению с oткрытым местoм. Скoрoсть ветра над акватoриями крупных рек и oзёр, а также на вершинах хoлмoв на 2-5 м/с выше, чем в oбычных услoвиях.
Атмoсфернoе давление в разных тoчках местнoсти мoжет значительнo oтличаться oт давления на метеoстанции, в зависимoсти oт услoвий рельефа (при пoдъёме на 10 м давление пoнижается примернo на 1 мм рт.ст.).